Location: *
(47.8307°S, 178.3954°E)
Time: 08:42:17
(UTC+00:00)

Cosmos 2221 Rocket - Pass Details

Date: 12 August 2024
Orbit: 617 x 644 km, 82.5° (Epoch: 18 September)

Event Time Altitude Azimuth Distance (km) Brightness Sun altitude
Exits shadow 17:04:12 47° 329° (NNW) 841 3.9 -22.0°
Maximum altitude 17:05:23 73° 259° (W) 671 3.4 -21.8°
Drops below altitude 10° 17:09:54 10° 174° (S) 2,033 6.3 -21.1°
Sets 17:12:09 0° 172° (S) 2,944 7.2 -20.7°
